STARLINK-31725 (59538 NORAD) Tracking and Keplerian Element Data

This shows tracking and keplerian element data for the satellite.

Feedback or suggestion? Click here.




ElementValue
Catalog59538
NameSTARLINK-31725
Epoch Orbit790
Epoch Day159.89352413
Epoch Year2024
RAAN19.1734
Inclination43.0025
Eccentricity0.0003081
Argument of Perigee273.839
Mean Anonmoly86.2118
Mean Motion15.50610909
Decay Rate3.297E-05
L11 59538U 24074E 24159.89352413 .00003297 00000+0 61942-4 0 9999
L22 59538 43.0025 19.1734 0003081 273.8390 86.2118 15.50610909 7903



Live tracking and technical data element details for STARLINK-31725 (NORAD 59538). STARLINK-31725 can be tracked NOW for your location showing map with azimuth and elevation plus other details from your city location.







IsCatalogInMostPopularTable: catalog: 59538, numindb: 12
Update: records affected: 1



GetName: 59538 STARLINK-31725

Hit Count: updated at: Fri, 14 Jun 2024 19:36:13 GMT